Tracking 35280 objects as of 7-Sep-2026
HD Live streaming from Space Station
objects crossing your sky now

COSMOS 1663 DEB


COSMOS 1663 DEB is no longer on orbit


NORAD ID: 15881
Int'l Code: 1985-052F
Launch date: June 21, 1985
Source: Commonwealth of Independent States (former USSR) (CIS)
Launch site: PLESETSK MISSILE AND SPACE COMPLEX (PKMTR)
Decay date: 1985-07-19

Note: This is SATELLITE DEBRIS
Your satellite tracking list
Your tracking list is empty




NASA's NSSDC Master Catalog

Two Line Element Set (TLE):
1 15881U 85052  F 85199.93185125  .05238455 -96802-5 +44812-3 0  9994
2 15881 082.3107 020.1708 0018002 233.6750 128.6125 16.38464642004453
Source of the keplerian elements: AFSPC